Location: Houhaj�rvi
(61.2833°N, 23.0000°E)
Time: 09:45:56
(UTC+00:00)

Cosmos 1844 Rocket - Pass Details

Date: 27 February 2020
Orbit: 823 x 846 km, 71.0° (Epoch: 29 March)

Event Time Altitude Azimuth Distance (km) Brightness Sun altitude
Rises 18:46:47 0° 304° (NW) 3,401 7.3 -22.1°
Reaches altitude 10° 18:49:25 10° 313° (NW) 2,469 6.1 -22.3°
Maximum altitude 18:54:40 37° 20° (NNE) 1,289 3.6 -22.9°
Enters shadow 18:56:24 31° 57° (ENE) 1,464 3.7 -23.1°
